Location: Croissy-Beaubourg
(48.8283°N, 2.6696°E)
Time: 01:32:45
(UTC+00:00)

USA 215 - Pass Details

Date: 31 May 2022
Orbit: 1099 x 1108 km, 123.0° (Epoch: 10 June)

Event Time Altitude Azimuth Distance (km) Brightness Sun altitude
Rises 21:45:04 0° 64° (ENE) 3,927 6.1 -14.1°
Reaches altitude 10° 21:48:47 10° 85° (E) 2,966 5.3 -14.4°
Maximum altitude 21:52:34 16° 121° (ESE) 2,543 4.7 -14.7°
Enters shadow 21:52:55 16° 125° (SE) 2,547 4.7 -14.7°
